Погода в Бандунге

Индонезия     6°56′54″S   107°39′13″E
темп.,
°C
ветер,
м/с
пор.,
м/с
влажн.,
%
обл.,
%
осадки,
мм/ч
давл.,
гПа
погр.,
м
14 июня, пн
пн1401:00+19ююв11965 0.0 101412
04:00+18ююв119519 0.0 101318
07:00+19юв129142 0.0 101471
10:00+25в2265100 0.0 1013828
13:00+28св2251100 0.0 10101916
16:00+25ссв3365100 0.1 1009623
19:00+20вюв1193100 0.3 101215
22:00+19ююв119658 0.0 101323
15 июня, вт
вт1501:00+18ююв11967 0.0 101221
04:00+18юв12958 0.0 101223
07:00+19ююв128978 0.0 101369
10:00+26всв11577 0.0 1012876
13:00+28ссв225170 0.3 10091809
16:00+23с2281100 2.9 1010395
19:00+20св1191100 6.4 101331
22:00+20ююв0094100 0.3 101424
16 июня, ср
ср1601:00+19юв1194100 0.4 101224
04:00+19юв229495 0.1 101248
07:00+19юв1192100 0.1 101343
10:00+23в117756 0.1 1014370
13:00+25ссв226888 2.0 10111109
16:00+23св118166 4.4 1011307
19:00+20всв1194100 8.6 101429
22:00+20всв119591 2.7 101547
17 июня, чт
чт1701:00+19ююв119674 3.1 101423
04:00+19в1196100 0.8 101328
07:00+19юв1295100 1.8 1015114
10:00+23в1181100 1.1 1014341
13:00+22ссз1186100 3.9 101287
16:00+21с018699 1.6 1012133
19:00+19зсз1294100 1.9 101437
22:00+19зюз119597 0.0 101513
18 июня, пт
пт1801:00+18юз119556 0.0 101414
04:00+17юз11946 0.0 101414
07:00+19ююз118953 0.0 101552
10:00+25ссз116659 0.1 1015872
13:00+24сз227693 2.9 1012847
16:00+20з239298 7.8 1012159
19:00+19ююз1196100 15.9 101433
22:00+18зюз1297100 5.6 101688